Location: Newark
(40.8000°N, 14.5000°E)
Time: 18:17:44
(UTC+00:00)

OTV 5 (USA 277) - Pass Details

Date: 27 August 2019
Orbit: 310 x 324 km, 54.5° (Epoch: 08 October)

Event Time Altitude Azimuth Distance (km) Brightness Sun altitude
Rises 18:36:59 0° 252° (WSW) 2,033 ? -10.5°
Reaches altitude 10° 18:39:07 10° 265° (W) 1,205 ? -10.9°
Maximum altitude 18:41:26 26° 326° (NW) 662 ? -11.3°
Drops below altitude 10° 18:43:46 10° 27° (NNE) 1,207 ? -11.7°
Sets 18:45:54 0° 41° (NE) 2,037 ? -12.1°
